www.pogodaiklimat.ru

Погода и климат >> Архив погоды >> Россия >> Якутия >> Агаякан


ПОГОДА в Агаякане

  • Прогноз погоды в Агаякане
  • Монитор погоды в Агаякане
  • Климат города

АРХИВ ПОГОДЫ в Агаякане

Время (UTC), дата Ветер
(напр.,м/с)
 
Видим.   Явления Облачность Т
(С)
Тd
(С)
f
(%)
Тe
(С)
Тes
(С)
Комфортность P
(гПа)
Po
(гПа)
Тmin
(С)
Tmax
(С)
R
(мм)
R24
(мм)
S
(см)
09 13.09 С 1 50 км 6/3 1000 м
[Sc diur, vesp Ci fib]
+4.1 -2.4 63 +3 +3 1021.3 928.9 +5.0
12 13.09 штиль 0 50 км 4/4 1000 м
[Sc]
-3.7 -4.7 93 -5 -5 1025.0 929.7 +10.5
15 13.09 штиль 0 20 км ясно -4.5 -5.2 95 -6 -6 1026.3 930.6
18 13.09 штиль 0 20 км ясно -5.3 -6.0 95 -6 -6 1026.3 930.4
21 13.09 Ю 2 50 км ясно -5.5 -5.9 97 -10 -10 1026.0 930.0 -5.8
00 14.09 Ю 2 50 км ясно -1.6 -4.0 84 -5 -2 1023.7 929.3
03 14.09 ЮВ 1 50 км ясно +6.4 -3.4 49 +6 +12 1017.3 926.0
06 14.09 СЗ 3 50 км ясно +9.1 -4.6 38 +7 +9 1014.4 924.2
09 14.09 штиль 0 50 км ясно +8.0 -2.9 46 +8 +8 1014.9 924.4 +9.4
12 14.09 штиль 0 20 км 4/4
[Sc diur, vesp]
-2.6 -5.6 80 -4 -4 1016.3 922.2
15 14.09 штиль 0 20 км 8/8 1000 м
[Sc]
+0.6 -2.5 80 -0 -0 1014.8 921.9
18 14.09 штиль 0 20 км 8/8 1000 м
[Sc]
+1.1 -1.2 85 0 0 1014.0 921.4
21 14.09 Ю 2 50 км 10/10 1000 м
[Sc]
-0.6 -2.1 90 -4 -4 1015.6 922.3 -2.7
00 15.09 Ю 2 50 км 10/10 1000 м
[Sc]
+2.1 -3.9 64 -1 -1 1014.0 921.7
03 15.09 ЮВ 1 50 км 3/3 1000 м
[Sc]
+8.5 -2.8 45 +8 +12 1009.2 919.4
06 15.09 В 1 50 км ясно +12.2 -3.2 34 +13 +15 1007.0 918.4
09 15.09 штиль 0 50 км ясно +10.3 -1.5 44 +10 +10 1006.7 917.5 +12.7
12 15.09 штиль 0 20 км ясно -1.7 -3.9 85 -3 -3 1010.8 917.5
15 15.09 Ю 1 20 км ясно -2.5 -4.4 87 -5 -5 1012.5 918.8
18 15.09 Ю 1 20 км ясно -4.5 -4.8 98 -7 -7 1012.6 918.3
21 15.09 Ю 2 50 км ясно -4.7 -5.3 96 -9 -9 1012.4 918.0 -5.0
00 16.09 Ю 2 70 км ясно +0.7 -1.9 83 -3 0 1010.3 917.9
03 16.09 В 1 50 км ясно +7.4 -1.6 53 +7 +13 1005.2 915.4
06 16.09 ЮВ 1 50 км ясно +11.3 -1.7 40 +12 +14 1004.3 915.7
09 16.09 СВ 1 50 км ясно +9.7 -1.3 46 +10 +10 1003.7 914.6 +11.6
12 16.09 штиль 0 20 км ясно -3.5 -6.3 81 -4 -4 1008.7 915.0
15 16.09 штиль 0 20 км ясно -5.3 -6.7 90 -6 -6 1009.8 915.4
18 16.09 штиль 0 20 км ясно -6.1 -7.2 92 -7 -7 1010.5 915.8
21 16.09 штиль 0 50 км 4/0
[Ci fib]
-7.5 -8.1 95 -8 -8 1009.9 914.7 -7.6
00 17.09 Ю 1 50 км 4/0
[Ci fib]
-1.5 -3.5 86 -4 -1 1008.3 915.4
03 17.09 СВ 1 50 км ясно +6.0 -3.3 51 +5 +11 1003.8 913.6
06 17.09 штиль 0 50 км 3/0
[Ci fib]
+10.0 -3.9 37 +10 +12 1001.3 912.5
09 17.09 штиль 0 50 км 6/0
[Cc]
+7.2 -2.6 50 +7 +7 1002.5 912.8 +10.3
12 17.09 штиль 0 20 км ясно -2.2 -4.7 83 -3 -3 1005.7 913.8
15 17.09 штиль 0 20 км 4/0
[Ci fib]
-4.4 -4.6 99 -6 -6 1008.5 914.5
18 17.09 штиль 0 20 км 4/0
[Ci fib]
-5.3 -6.0 95 -6 -6 1009.4 915.0
21 17.09 З 1 50 км 10/0
[Ac und]
-5.5 -6.2 95 -8 -8 1011.4 916.7 -5.6
00 18.09 З 1 50 км 10/0
[As trans]
-0.5 -3.2 82 -2 -1 1010.8 918.0
03 18.09 С 1 50 км 10/0
[As trans Ci fib]
+4.9 -2.7 58 +4 +7 1008.2 917.3
06 18.09 штиль 0 50 км 10/3 600 м
[Cu hum Ci fib]
+10.3 -0.1 48 +10 +11 1005.4 916.4
09 18.09 штиль 0 50 км 10/0
[Ac trans Ci fib]
+7.5 -0.8 56 +7 +7 1006.3 916.4 +10.5
12 18.09 Ю 1 50 км 4/0
[Ci fib]
-2.5 -4.5 86 -5 -5 1011.1 917.5
15 18.09 Ю 1 20 км ясно -2.9 -3.6 95 -5 -5 1011.3 917.6
18 18.09 ЮЗ 2 20 км ясно -2.9 -6.3 77 -7 -7 1011.7 918.0
21 18.09 ЮЗ 1 50 км 4/0
[Ci fib]
-4.9 -4.9 100 -7 -7 1012.5 918.0 -5.3
00 19.09 СВ 1 50 км 6/6 1000 м
[Sc]
-1.0 -2.6 89 -3 -2 1011.6 918.5
03 19.09 С 1 50 км 8/8 1000 м
[Sc]
+7.6 -1.3 53 +7 +8 1006.4 916.6
06 19.09 В 1 50 км 10/10 1000 м
[Sc]
+7.8 -4.3 42 +8 +8 1006.4 916.5
09 19.09 штиль 0 50 км 10/10 1000 м
[Sc]
+4.6 -2.1 62 +4 +4 1007.9 916.9 +7.9
12 19.09 штиль 0 20 км 10/10 1000 м
[Sc]
+2.3 -2.0 73 +2 +2 1009.7 917.9
15 19.09 штиль 0 20 км 10/10 1000 м
[Sc]
+1.8 -1.3 80 +1 +1 1009.9 917.9
18 19.09 штиль 0 20 км 10/10 1000 м
[Sc]
+0.8 -1.8 83 -0 -0 1010.6 918.3
21 19.09 штиль 0 50 км 10/10 1000 м
[Sc]
+2.9 -1.9 71 +2 +2 1009.4 917.8 -99.4
00 20.09 СВ 1 50 км 10/10 1000 м
[Sc]
+4.1 -1.1 69 +3 +3 1010.4 919.1
03 20.09 СВ 1 50 км 10/10 1000 м
[Sc]
+5.2 -3.3 54 +5 +5 1009.7 918.7

 

Местоположение метеостанции Агаякан (Якутия, Россия): широта 63.33 долгота 141.70 высота над уровнем моря 777 м.

В архиве по умолчанию представлена погода в Агаякане за последнюю неделю. Архивные данные за месяц целиком и за предыдущие месяцы, начиная с января 2011 года, Вы можете получить, выбрав интересующий диапазон дат из раскрывающегося списка и нажав кнопку "Ввод!".


*Определитесь, кто Вы:
робот инопланетянин человек

Внимание! Время в таблицах - всемирное. Для получения местного времени необходимо прибавить поправку, которая в Агаякане равна 10 ч.

Смотрите также архив погоды в соседних городах и на ближайших метеорологических станциях:

Погода в Оймяконе (Якутия, Россия) (71 км)
Погода в Юртах (Якутия, Россия) (80 км)
Погода в Восточной (Якутия, Россия) (106 км)
Погода в Усть-Нере (Якутия, Россия) (150 км)
Погода в Делянкире (Якутия, Россия) (201 км)
Погода в Теплом Ключе (Якутия, Россия) (254 км)
Погода в Уеге (Хабаровский край, Россия) (295 км)
Погода в Томпо (Якутия, Россия) (299 км)
Погода в Сусумане (Магаданская область, Россия) (328 км)
Погода в Колымской (Магаданская область, Россия) (344 км)

Пояснения к столбцам:

Ветер - указаны скорость ветра в м/с - средняя за 10 мин, порывы в срок и между сроками (в фигурных скобках) и направление, откуда дует ветер: С - северный, СВ - северо-восточный, В - восточный, ЮВ - юго-восточный, Ю - южный, ЮЗ - юго-западный, З - западный, СЗ - северо-западный.
Видимость - горизонтальная дальность видимости в метрах или километрах. При видимости от 1 до 10 км при отсутствии осадков обычно наблюдается дымка, при ухудшении видимости до 1 км и менее - туман. В сухую погоду видимость может ухудшаться дымом, пылью или мглою.
Явления - указаны атмосферные явления, наблюдавшиеся в срок или в последний час перед сроком; фигурными скобками обозначены явления, наблюдавшиеся между сроками (за 1-3 часа до срока); квадратными скобками обозначены град или гололедные отложения с указанием их диаметра в мм.
Облачность - указаны через наклонную черту общая и нижняя облачность в баллах и высота нижней границы облаков в метрах; квадратными скобками обозначены формы облаков: Ci - перистые, Cs - перисто-слоистые, Cc - перисто-кучевые, Ac - высококучевые, As - высокослоистые, Sc - слоисто-кучевые, Ns - слоисто-дождевые, Cu - кучевые, Cb - кучево-дождевые. Подробнее классификацию облаков см. в Атласе облаков (PDF).
T - Температура воздуха - температура, измеренная на высоте 2 м над землей.
Td - Температура точки росы - температура, при понижении до которой содержащийся в воздухе водяной пар достигнет насыщения.
f - Относительная влажность воздуха - влажноcть воздуха, измеренная на высоте 2 м над землей.
Te - Эффективная температура - температура, которую ощущает одетый по сезону человек в тени. Характеристика душности погоды. При расчете учитывается влияние влажности воздуха и скорости ветра на теплоощущения человека.
Tes - Эффективная температура на солнце - температура, которую ощущает человек, с поправкой на солнечный нагрев. Характеристика знойности погоды. Зависит от высоты солнца над горизонтом, облачности и скорости ветра. Ночью, в пасмурную погоду, а также при ветре 12 м/с и более поправка равна нулю.
P - Атмосферное давление - приведенное к уровню моря атмосферное давление.
Po - Атмосферное давление - измеренное на уровне метеостанции атмосферное давление.
Tmin - Минимальная температура - минимум температуры воздуха на высоте 2 м над землей.
Tmax - Максимальная температура - максимум температуры воздуха на высоте 2 м над землей.
R - Количество осадков - Количество выпавших осадков за период времени, мм. При наведении курсора мыши на число - период времени, за который выпало указанное количество осадков.
R24 - Количество осадков - Количество выпавших осадков за 24 часа, мм.
S - Снежный покров - Высота снежного покрова, см. При наведении курсора мыши на число - состояние снежного покрова и степень покрытия местности в баллах.